| time (UTC) | temp C | wind direction | speed KPH | gust KPH | rain 1hr cm | rain 24hr cm | rain mn cm | humidity % | barometer mb |
| 20260902163230 | 22 | 360 | 4.8 | 0.0 | 0.00 | 0.00 | 0.00 | 53 | 1019.0 |
| 20260902162559 | 23 | 0 | 8.0 | 0.0 | 0.00 | 0.00 | 0.00 | 44 | |
| 20260902160233 | 22 | 360 | 4.8 | 0.0 | 0.00 | 0.00 | 0.00 | 46 | 1019.0 |
| 20260902153230 | 23 | 240 | 14.5 | 0.0 | 0.00 | 0.00 | 0.00 | 41 | 1019.0 |
| 20260902152155 | 23 | 0 | 11.3 | 0.0 | 0.00 | 0.00 | 0.00 | 38 | |
| 20260902150235 | 23 | 250 | 9.7 | 0.0 | 0.00 | 0.00 | 0.00 | 38 | 1019.0 |
| 20260902143231 | 25 | 240 | 19.3 | 0.0 | 0.00 | 0.00 | 0.00 | 33 | 1019.0 |
| 20260902142358 | 25 | 240 | 19.3 | 0.0 | 0.00 | 0.00 | 0.00 | 36 | |
| 20260902140240 | 25 | 260 | 12.9 | 0.0 | 0.00 | 0.00 | 0.00 | 36 | 1019.0 |
| 20260902133230 | 25 | 250 | 19.3 | 0.0 | 0.00 | 0.00 | 0.00 | 33 | 1019.0 |
| 20260902132355 | 25 | 240 | 19.3 | 0.0 | 0.00 | 0.00 | 0.00 | 36 | |
| 20260902130233 | 26 | 240 | 20.9 | 0.0 | 0.00 | 0.00 | 0.00 | 34 | 1020.0 |
| 20260902123231 | 25 | 240 | 22.5 | 0.0 | 0.00 | 0.00 | 0.00 | 36 | 1020.0 |
| 20260902122156 | 25 | 230 | 22.5 | 0.0 | 0.00 | 0.00 | 0.00 | 38 | |
| 20260902120233 | 25 | 230 | 24.1 | 0.0 | 0.00 | 0.00 | 0.00 | 36 | 1020.0 |
| 20260902113230 | 25 | 240 | 22.5 | 0.0 | 0.00 | 0.00 | 0.00 | 38 | 1020.0 |
| 20260902112355 | 25 | 230 | 25.7 | 0.0 | 0.00 | 0.00 | 0.00 | 41 | |
| 20260902110240 | 23 | 230 | 22.5 | 0.0 | 0.00 | 0.00 | 0.00 | 41 | 1020.0 |
| 20260902103231 | 23 | 220 | 22.5 | 0.0 | 0.00 | 0.00 | 0.00 | 41 | 1021.0 |
| 20260902102457 | 22 | 210 | 22.5 | 0.0 | 0.00 | 0.00 | 0.00 | 46 | |
| 20260902100234 | 22 | 220 | 20.9 | 0.0 | 0.00 | 0.00 | 0.00 | 46 | 1021.0 |
| 20260902093231 | 22 | 220 | 20.9 | 0.0 | 0.00 | 0.00 | 0.00 | 46 | 1021.0 |
| 20260902092157 | 22 | 240 | 25.7 | 0.0 | 0.00 | 0.00 | 0.00 | 49 | |
| 20260902090233 | 22 | 230 | 22.5 | 0.0 | 0.00 | 0.00 | 0.00 | 49 | 1021.0 |
| 20260902083231 | 21 | 220 | 16.1 | 0.0 | 0.00 | 0.00 | 0.00 | 52 | 1021.0 |
| 20260902082357 | 18 | 0 | 8.0 | 0.0 | 0.00 | 0.00 | 0.00 | 63 | |
| 20260902080234 | 17 | 240 | 9.7 | 0.0 | 0.00 | 0.00 | 0.00 | 67 | 1021.0 |
| 20260902073231 | 17 | 240 | 9.7 | 0.0 | 0.00 | 0.00 | 0.00 | 72 | 1021.0 |
| 20260902072255 | 16 | 250 | 11.3 | 0.0 | 0.00 | 0.00 | 0.00 | 77 | |
| 20260902070239 | 15 | 250 | 9.7 | 0.0 | 0.00 | 0.00 | 0.00 | 82 | 1021.0 |
| 20260902063229 | 13 | 240 | 8.0 | 0.0 | 0.00 | 0.00 | 0.00 | 82 | 1021.0 |
| 20260902062155 | 12 | 250 | 11.3 | 0.0 | 0.00 | 0.00 | 0.00 | 87 | |
| 20260902060230 | 12 | 250 | 9.7 | 0.0 | 0.00 | 0.00 | 0.00 | 87 | 1021.0 |
| 20260902053224 | 12 | 230 | 9.7 | 0.0 | 0.00 | 0.00 | 0.00 | 82 | 1021.0 |
| 20260902052338 | 12 | 210 | 11.3 | 0.0 | 0.00 | 0.00 | 0.00 | 82 | |
| 20260902050226 | 12 | 210 | 11.3 | 0.0 | 0.00 | 0.00 | 0.00 | 87 | 1021.0 |
| 20260902043224 | 12 | 230 | 11.3 | 0.0 | 0.00 | 0.00 | 0.00 | 87 | 1021.0 |
| 20260902042458 | 11 | 230 | 8.0 | 0.0 | 0.00 | 0.00 | 0.00 | 93 | |
| 20260902040238 | 11 | 240 | 8.0 | 0.0 | 0.00 | 0.00 | 0.00 | 87 | 1021.0 |
| 20260902033224 | 12 | 230 | 12.9 | 0.0 | 0.00 | 0.00 | 0.00 | 87 | 1021.0 |
| 20260902032608 | 12 | 220 | 14.5 | 0.0 | 0.00 | 0.00 | 0.00 | 87 | |
| 20260902032155 | 12 | 220 | 14.5 | 0.0 | 0.00 | 0.00 | 0.00 | 87 | |
| 20260902030239 | 12 | 220 | 12.9 | 0.0 | 0.00 | 0.00 | 0.00 | 87 | 1021.0 |
| 20260902023223 | 12 | 220 | 9.7 | 0.0 | 0.00 | 0.00 | 0.00 | 87 | 1021.0 |
| 20260902022355 | 12 | 220 | 11.3 | 0.0 | 0.00 | 0.00 | 0.00 | 82 | |
| 20260902020233 | 12 | 220 | 11.3 | 0.0 | 0.00 | 0.00 | 0.00 | 87 | 1021.0 |
| 20260902013223 | 11 | 220 | 11.3 | 0.0 | 0.00 | 0.00 | 0.00 | 87 | 1021.0 |
| 20260902012355 | 12 | 220 | 11.3 | 0.0 | 0.00 | 0.00 | 0.00 | 87 | |
| 20260902010235 | 12 | 220 | 11.3 | 0.0 | 0.00 | 0.00 | 0.00 | 81 | 1021.0 |
| 20260902003224 | 12 | 0 | 3.2 | 0.0 | 0.00 | 0.00 | 0.00 | 81 | 1021.0 |
| 20260902002156 | 12 | 0 | 8.0 | 0.0 | 0.00 | 0.00 | 0.00 | 87 | |
| 20260902000241 | 12 | 230 | 8.0 | 0.0 | 0.00 | 0.00 | 0.00 | 87 | 1021.0 |
| 20260901233224 | 12 | 210 | 8.0 | 0.0 | 0.00 | 0.00 | 0.00 | 82 | 1021.0 |
| 20260901232339 | 12 | 220 | 8.0 | 0.0 | 0.00 | 0.00 | 0.00 | 87 | |
| 20260901230234 | 11 | 230 | 9.7 | 0.0 | 0.00 | 0.00 | 0.00 | 87 | 1021.0 |
| 20260901223224 | 13 | 220 | 9.7 | 0.0 | 0.00 | 0.00 | 0.00 | 71 | 1021.0 |
| 20260901222442 | 15 | 190 | 8.0 | 0.0 | 0.00 | 0.00 | 0.00 | 72 | |
| 20260901220236 | 15 | 190 | 4.8 | 0.0 | 0.00 | 0.00 | 0.00 | 72 | 1021.0 |
| 20260901213224 | 12 | 220 | 11.3 | 0.0 | 0.00 | 0.00 | 0.00 | 87 | 1021.0 |
| 20260901212155 | 13 | 230 | 11.3 | 0.0 | 0.00 | 0.00 | 0.00 | 76 | |
| 20260901210240 | 13 | 240 | 8.0 | 0.0 | 0.00 | 0.00 | 0.00 | 82 | 1021.0 |
| 20260901203224 | 16 | 0 | 3.2 | 0.0 | 0.00 | 0.00 | 0.00 | 67 | 1021.0 |
| 20260901202354 | 16 | 190 | 8.0 | 0.0 | 0.00 | 0.00 | 0.00 | 72 | |
| 20260901200233 | 17 | 190 | 4.8 | 0.0 | 0.00 | 0.00 | 0.00 | 67 | 1021.0 |
| 20260901193223 | 17 | 160 | 3.2 | 0.0 | 0.00 | 0.00 | 0.00 | 63 | 1021.0 |
| 20260901192355 | 17 | 0 | 3.2 | 0.0 | 0.00 | 0.00 | 0.00 | 59 | |
| 20260901190232 | 17 | 0 | 3.2 | 0.0 | 0.00 | 0.00 | 0.00 | 55 | 1020.0 |
| 20260901183231 | 18 | 250 | 8.0 | 0.0 | 0.00 | 0.00 | 0.00 | 52 | 1020.0 |
| 20260901182155 | 18 | 260 | 11.3 | 0.0 | 0.00 | 0.00 | 0.00 | 55 | |
| 20260901180232 | 18 | 260 | 9.7 | 0.0 | 0.00 | 0.00 | 0.00 | 55 | 1020.0 |
| 20260901173224 | 20 | 240 | 9.7 | 0.0 | 0.00 | 0.00 | 0.00 | 52 | 1020.0 |
| 20260901172355 | 22 | 260 | 11.3 | 0.0 | 0.00 | 0.00 | 0.00 | 49 | |
| 20260901170240 | 21 | 260 | 9.7 | 0.0 | 0.00 | 0.00 | 0.00 | 52 | 1020.0 |